Simultaneous Nadir Overpasses (SNOs) Predictions

Prediction of SNOs over PacNW region [( 10.00, 139.50) to ( 22.70, 165.60)] between AQUA and NPP Satellites:

Table of predicted SNOs over PacNW region for the next 30.0 days since TLE Epoch: 12/20/2014
Index Date (AQUA) Time (AQUA) AQUA Lat,Lon Date (NPP) Time (NPP) NPP Lat,Lon Distance(km) Time Diff (sec)
1 12/21/2014 02:39:13 10.06, 162.68 12/21/2014 02:40:48 9.77, 161.45 138.78 95
2 12/23/2014 16:20:26 14.94, 141.04 12/23/2014 16:18:18 14.99, 140.89 16.99 128
3 12/29/2014 03:28:44 10.09, 150.31 12/29/2014 03:31:20 9.78, 148.77 171.93 156
4 12/31/2014 15:32:22 10.01, 152.33 12/31/2014 15:28:52 9.62, 152.35 44.26 210
5 01/06/2015 02:39:08 10.06, 162.72 01/06/2015 02:40:21 9.81, 161.47 140.21 73
6 01/08/2015 16:20:29 14.03, 140.91 01/08/2015 16:18:06 14.06, 140.70 22.51 143
7 01/14/2015
